Starlink 5334

operational
NORAD ID: 56509 Int'l Des: 2023-065 Owner: SPXS Country: US Constellation: starlink
LEOCIRCULAR

About Starlink 5334

Description loading...

Live Position

Loading 3D Globe...

Upcoming Passes

Altitude History

Altitude vs Time

uPlot chart will show altitude changes over time

Two-Line Element Set

1 56509U 23065G 25352.85642483 .00000731 00000-0 69162-4 0 9997
2 56509 43.0051 289.7145 0001433 268.3535 91.7143 15.02534983144463
Epoch: Dec 18, 2025 • Age: 17 hours

Current Status

Altitude 562.6 km
Velocity 7.58 km/s
Sub-Earth Point -18.55°S, 162.97°W
Launch Date May 14, 2023
Age 2.6 years
Type internet

Technical Details

Classification Payload
Mass 305.00 kg
Dry Mass 290.00 kg
Total Mass 305.00 kg
Length 0.20 m
Diameter 2.80 m
Span 9.00 m
Shape Box + pan
Manufacturer SPXS
Bus Type Starlink
Phase Status In Orbit
Owner/State SPXS/US

Large Constellations

Loading constellations...